Time,TemperatureF,DewpointF,PressureIn,WindDirection,WindDirectionDegrees,WindSpeedMPH,WindSpeedGustMPH,Humidity,HourlyPrecipIn,Conditions,Clouds,dailyrainin,SoftwareType,DateUTC
2013-10-13 00:02:00,44.0,24.0,-100.00,East,80,4.0,16.0,45,0.00,,,0.00,,2013-10-13 08:02:00,
2013-10-13 00:12:00,44.0,24.0,-100.00,East,80,4.0,16.0,45,0.00,,,0.00,,2013-10-13 08:12:00,
2013-10-13 00:22:00,44.0,24.0,-100.00,ESE,110,6.0,14.0,45,0.00,,,0.00,,2013-10-13 08:22:00,
2013-10-13 00:32:00,44.0,24.0,-100.00,ESE,110,6.0,14.0,45,0.00,,,0.00,,2013-10-13 08:32:00,
2013-10-13 00:42:00,44.0,24.0,-100.00,ESE,110,6.0,14.0,45,0.00,,,0.00,,2013-10-13 08:42:00,
2013-10-13 00:52:00,44.0,24.0,-100.00,East,100,4.0,18.0,45,0.00,,,0.00,,2013-10-13 08:52:00,
2013-10-13 01:02:00,44.0,24.0,-100.00,East,100,4.0,18.0,45,0.00,,,0.00,,2013-10-13 09:02:00,
2013-10-13 01:11:00,44.0,24.0,-100.00,East,100,4.0,18.0,45,0.00,,,0.00,,2013-10-13 09:11:00,
2013-10-13 01:22:00,44.0,23.0,-100.00,ESE,120,7.0,18.0,44,0.00,,,0.00,,2013-10-13 09:22:00,
2013-10-13 01:33:00,44.0,23.0,-100.00,ESE,120,7.0,18.0,44,0.00,,,0.00,,2013-10-13 09:33:00,
2013-10-13 01:43:00,44.0,23.0,-100.00,ESE,120,7.0,18.0,44,0.00,,,0.00,,2013-10-13 09:43:00,
2013-10-13 01:53:00,44.0,23.0,-100.00,East,85,4.0,14.0,43,0.00,,,0.00,,2013-10-13 09:53:00,
2013-10-13 02:03:00,44.0,23.0,-100.00,East,85,4.0,14.0,43,0.00,,,0.00,,2013-10-13 10:03:00,
2013-10-13 02:13:00,44.0,23.0,-100.00,East,85,4.0,14.0,43,0.00,,,0.00,,2013-10-13 10:13:00,
2013-10-13 02:23:00,44.0,23.0,-100.00,ESE,105,5.0,14.0,43,0.00,,,0.00,,2013-10-13 10:23:00,
2013-10-13 02:33:00,44.0,23.0,-100.00,ESE,105,5.0,14.0,43,0.00,,,0.00,,2013-10-13 10:33:00,
2013-10-13 02:43:00,44.0,23.0,-100.00,ESE,105,5.0,14.0,43,0.00,,,0.00,,2013-10-13 10:43:00,
2013-10-13 02:52:00,44.0,23.0,-100.00,ESE,110,5.0,12.0,43,0.00,,,0.00,,2013-10-13 10:52:00,
2013-10-13 03:03:00,44.0,23.0,-100.00,ESE,110,5.0,12.0,43,0.00,,,0.00,,2013-10-13 11:03:00,
2013-10-13 03:12:00,44.0,23.0,-100.00,ESE,110,5.0,12.0,43,0.00,,,0.00,,2013-10-13 11:12:00,
2013-10-13 03:21:00,43.0,23.0,-100.00,East,80,6.0,13.0,43,0.00,,,0.00,,2013-10-13 11:21:00,
2013-10-13 03:33:00,43.0,23.0,-100.00,East,80,6.0,13.0,43,0.00,,,0.00,,2013-10-13 11:33:00,
2013-10-13 03:42:00,43.0,23.0,-100.00,East,80,6.0,13.0,43,0.00,,,0.00,,2013-10-13 11:42:00,
2013-10-13 03:52:00,43.0,22.0,-100.00,ENE,70,5.0,12.0,43,0.00,,,0.00,,2013-10-13 11:52:00,
2013-10-13 04:01:00,43.0,22.0,-100.00,ENE,70,5.0,12.0,43,0.00,,,0.00,,2013-10-13 12:01:00,
2013-10-13 04:12:00,43.0,22.0,-100.00,ENE,70,5.0,12.0,43,0.00,,,0.00,,2013-10-13 12:12:00,
2013-10-13 04:21:00,43.0,22.0,-100.00,ENE,75,5.0,12.0,43,0.00,,,0.00,,2013-10-13 12:21:00,
2013-10-13 04:32:00,43.0,22.0,-100.00,ENE,75,5.0,12.0,43,0.00,,,0.00,,2013-10-13 12:32:00,
2013-10-13 04:42:00,43.0,22.0,-100.00,ENE,75,5.0,12.0,43,0.00,,,0.00,,2013-10-13 12:42:00,
2013-10-13 04:52:00,43.0,22.0,-100.00,East,80,6.0,12.0,43,0.00,,,0.00,,2013-10-13 12:52:00,
2013-10-13 05:02:00,43.0,22.0,-100.00,East,80,6.0,12.0,43,0.00,,,0.00,,2013-10-13 13:02:00,
2013-10-13 05:12:00,43.0,22.0,-100.00,East,80,6.0,12.0,43,0.00,,,0.00,,2013-10-13 13:12:00,
2013-10-13 05:21:00,42.0,22.0,-100.00,East,90,4.0,16.0,44,0.00,,,0.00,,2013-10-13 13:21:00,
2013-10-13 05:32:00,42.0,22.0,-100.00,East,90,4.0,16.0,44,0.00,,,0.00,,2013-10-13 13:32:00,
2013-10-13 05:42:00,42.0,22.0,-100.00,East,90,4.0,16.0,44,0.00,,,0.00,,2013-10-13 13:42:00,
2013-10-13 05:52:00,42.0,22.0,-100.00,SSE,150,6.0,13.0,44,0.00,,,0.00,,2013-10-13 13:52:00,
2013-10-13 06:02:00,42.0,22.0,-100.00,SSE,150,6.0,13.0,44,0.00,,,0.00,,2013-10-13 14:02:00,
2013-10-13 06:11:00,42.0,22.0,-100.00,SSE,150,6.0,13.0,44,0.00,,,0.00,,2013-10-13 14:11:00,
2013-10-13 06:21:00,42.0,22.0,-100.00,East,85,6.0,11.0,44,0.00,,,0.00,,2013-10-13 14:21:00,
2013-10-13 06:32:00,42.0,22.0,-100.00,East,85,6.0,11.0,44,0.00,,,0.00,,2013-10-13 14:32:00,
2013-10-13 06:42:00,42.0,22.0,-100.00,East,85,6.0,11.0,44,0.00,,,0.00,,2013-10-13 14:42:00,
2013-10-13 06:52:00,42.0,22.0,-100.00,East,85,6.0,12.0,44,0.00,,,0.00,,2013-10-13 14:52:00,
2013-10-13 07:01:00,42.0,22.0,-100.00,East,85,6.0,12.0,44,0.00,,,0.00,,2013-10-13 15:01:00,
2013-10-13 07:12:00,42.0,22.0,-100.00,East,85,6.0,12.0,44,0.00,,,0.00,,2013-10-13 15:12:00,
2013-10-13 07:22:00,42.0,22.0,-100.00,East,95,6.0,12.0,44,0.00,,,0.00,,2013-10-13 15:22:00,
2013-10-13 07:33:00,42.0,22.0,-100.00,East,95,6.0,12.0,44,0.00,,,0.00,,2013-10-13 15:33:00,
2013-10-13 07:43:00,42.0,22.0,-100.00,East,95,6.0,12.0,44,0.00,,,0.00,,2013-10-13 15:43:00,
2013-10-13 07:54:00,41.0,22.0,-100.00,ESE,120,4.0,11.0,45,0.00,,,0.00,,2013-10-13 15:54:00,
2013-10-13 08:03:00,41.0,22.0,-100.00,ESE,120,4.0,11.0,45,0.00,,,0.00,,2013-10-13 16:03:00,
2013-10-13 08:12:00,41.0,22.0,-100.00,ESE,120,4.0,11.0,45,0.00,,,0.00,,2013-10-13 16:12:00,
2013-10-13 08:23:00,41.0,22.0,-100.00,ESE,105,5.0,13.0,45,0.00,,,0.00,,2013-10-13 16:23:00,
2013-10-13 08:33:00,41.0,22.0,-100.00,ESE,105,5.0,13.0,45,0.00,,,0.00,,2013-10-13 16:33:00,
2013-10-13 08:42:00,41.0,22.0,-100.00,ESE,105,5.0,13.0,45,0.00,,,0.00,,2013-10-13 16:42:00,
2013-10-13 08:54:00,41.0,22.0,-100.00,ESE,110,4.0,12.0,45,0.00,,,0.00,,2013-10-13 16:54:00,
2013-10-13 09:03:00,41.0,22.0,-100.00,ESE,110,4.0,12.0,45,0.00,,,0.00,,2013-10-13 17:03:00,
2013-10-13 09:12:00,41.0,22.0,-100.00,ESE,110,4.0,12.0,45,0.00,,,0.00,,2013-10-13 17:12:00,
2013-10-13 09:22:00,41.0,22.0,-100.00,ESE,115,4.0,15.0,45,0.00,,,0.00,,2013-10-13 17:22:00,
2013-10-13 09:34:00,41.0,22.0,-100.00,ESE,115,4.0,15.0,45,0.00,,,0.00,,2013-10-13 17:34:00,
2013-10-13 09:43:00,41.0,22.0,-100.00,ESE,115,4.0,15.0,45,0.00,,,0.00,,2013-10-13 17:43:00,
2013-10-13 09:52:00,42.0,22.0,-100.00,ESE,120,5.0,15.0,44,0.00,,,0.00,,2013-10-13 17:52:00,
2013-10-13 10:02:00,42.0,22.0,-100.00,ESE,120,5.0,15.0,44,0.00,,,0.00,,2013-10-13 18:02:00,
2013-10-13 10:12:00,42.0,22.0,-100.00,ESE,120,5.0,15.0,44,0.00,,,0.00,,2013-10-13 18:12:00,
2013-10-13 10:22:00,42.0,22.0,-100.00,ENE,75,5.0,13.0,44,0.00,,,0.00,,2013-10-13 18:22:00,
2013-10-13 10:32:00,42.0,22.0,-100.00,ENE,75,5.0,13.0,44,0.00,,,0.00,,2013-10-13 18:32:00,
2013-10-13 10:42:00,42.0,22.0,-100.00,ENE,75,5.0,13.0,44,0.00,,,0.00,,2013-10-13 18:42:00,
2013-10-13 10:52:00,42.0,22.0,-100.00,SSE,160,5.0,15.0,44,0.00,,,0.00,,2013-10-13 18:52:00,
2013-10-13 11:02:00,42.0,22.0,-100.00,SSE,160,5.0,15.0,44,0.00,,,0.00,,2013-10-13 19:02:00,
2013-10-13 11:11:00,42.0,22.0,-100.00,SSE,160,5.0,15.0,44,0.00,,,0.00,,2013-10-13 19:11:00,
2013-10-13 11:21:00,42.0,22.0,-100.00,SE,130,4.0,12.0,44,0.00,,,0.00,,2013-10-13 19:21:00,
2013-10-13 11:32:00,42.0,22.0,-100.00,SE,130,4.0,12.0,44,0.00,,,0.00,,2013-10-13 19:32:00,
2013-10-13 11:42:00,42.0,22.0,-100.00,SE,130,4.0,12.0,44,0.00,,,0.00,,2013-10-13 19:42:00,
2013-10-13 11:52:00,42.0,22.0,-100.00,SSE,160,7.0,16.0,45,0.00,,,0.00,,2013-10-13 19:52:00,
2013-10-13 12:02:00,42.0,22.0,-100.00,SSE,160,7.0,16.0,45,0.00,,,0.00,,2013-10-13 20:02:00,
2013-10-13 12:12:00,42.0,22.0,-100.00,SSE,160,7.0,16.0,45,0.00,,,0.00,,2013-10-13 20:12:00,
2013-10-13 12:22:00,42.0,22.0,-100.00,SE,140,9.0,18.0,45,0.00,,,0.00,,2013-10-13 20:22:00,
2013-10-13 12:32:00,42.0,22.0,-100.00,SE,140,9.0,18.0,45,0.00,,,0.00,,2013-10-13 20:32:00,
2013-10-13 12:43:00,42.0,22.0,-100.00,SE,140,9.0,18.0,45,0.00,,,0.00,,2013-10-13 20:43:00,
2013-10-13 12:52:00,40.0,24.0,-100.00,ESE,115,4.0,13.0,50,0.00,,,0.00,,2013-10-13 20:52:00,
2013-10-13 13:02:00,40.0,24.0,-100.00,ESE,115,4.0,13.0,50,0.00,,,0.00,,2013-10-13 21:02:00,
2013-10-13 13:11:00,40.0,24.0,-100.00,ESE,115,4.0,13.0,50,0.00,,,0.00,,2013-10-13 21:11:00,
2013-10-13 13:21:00,41.0,23.0,-100.00,East,85,6.0,14.0,47,0.00,,,0.00,,2013-10-13 21:21:00,
2013-10-13 13:34:00,41.0,23.0,-100.00,East,85,6.0,14.0,47,0.00,,,0.00,,2013-10-13 21:34:00,
2013-10-13 13:44:00,41.0,23.0,-100.00,East,85,6.0,14.0,47,0.00,,,0.00,,2013-10-13 21:44:00,
2013-10-13 13:55:00,41.0,23.0,-100.00,ENE,75,5.0,15.0,47,0.00,,,0.00,,2013-10-13 21:55:00,
2013-10-13 14:03:00,41.0,23.0,-100.00,ENE,75,5.0,15.0,47,0.00,,,0.00,,2013-10-13 22:03:00,
2013-10-13 14:13:00,41.0,23.0,-100.00,ENE,75,5.0,15.0,47,0.00,,,0.00,,2013-10-13 22:13:00,
2013-10-13 14:24:00,42.0,23.0,-100.00,ESE,120,4.0,13.0,46,0.00,,,0.00,,2013-10-13 22:24:00,
2013-10-13 14:32:00,42.0,23.0,-100.00,ESE,120,4.0,13.0,46,0.00,,,0.00,,2013-10-13 22:32:00,
2013-10-13 14:43:00,42.0,23.0,-100.00,ESE,120,4.0,13.0,46,0.00,,,0.00,,2013-10-13 22:43:00,
2013-10-13 14:53:00,42.0,23.0,-100.00,SSE,160,4.0,17.0,46,0.00,,,0.00,,2013-10-13 22:53:00,
2013-10-13 15:03:00,42.0,23.0,-100.00,SSE,160,4.0,17.0,46,0.00,,,0.00,,2013-10-13 23:03:00,
2013-10-13 15:12:00,42.0,23.0,-100.00,SSE,160,4.0,17.0,46,0.00,,,0.00,,2013-10-13 23:12:00,
2013-10-13 15:22:00,42.0,23.0,-100.00,ESE,115,7.0,17.0,46,0.00,,,0.00,,2013-10-13 23:22:00,
2013-10-13 15:33:00,42.0,23.0,-100.00,ESE,115,7.0,17.0,46,0.00,,,0.00,,2013-10-13 23:33:00,
2013-10-13 15:42:00,42.0,23.0,-100.00,ESE,115,7.0,17.0,46,0.00,,,0.00,,2013-10-13 23:42:00,
2013-10-13 15:52:00,42.0,23.0,-100.00,SSE,160,7.0,19.0,47,0.00,,,0.00,,2013-10-13 23:52:00,
2013-10-13 16:01:00,42.0,23.0,-100.00,SSE,160,7.0,19.0,47,0.00,,,0.00,,2013-10-14 00:01:00,
2013-10-13 16:12:00,42.0,23.0,-100.00,SSE,160,7.0,19.0,47,0.00,,,0.00,,2013-10-14 00:12:00,
2013-10-13 16:21:00,41.0,22.0,-100.00,SSE,155,9.0,24.0,46,0.00,,,0.00,,2013-10-14 00:21:00,
2013-10-13 16:32:00,41.0,22.0,-100.00,SSE,155,9.0,24.0,46,0.00,,,0.00,,2013-10-14 00:32:00,
2013-10-13 16:42:00,41.0,22.0,-100.00,SSE,155,9.0,24.0,46,0.00,,,0.00,,2013-10-14 00:42:00,
2013-10-13 17:11:00,41.0,22.0,-100.00,SE,145,5.0,16.0,46,0.00,,,0.00,,2013-10-14 01:11:00,
2013-10-13 17:21:00,41.0,22.0,-100.00,SSE,155,10.0,17.0,46,0.00,,,0.00,,2013-10-14 01:21:00,
2013-10-13 17:32:00,41.0,22.0,-100.00,SSE,155,10.0,17.0,46,0.00,,,0.00,,2013-10-14 01:32:00,
2013-10-13 17:42:00,41.0,22.0,-100.00,SSE,155,10.0,17.0,46,0.00,,,0.00,,2013-10-14 01:42:00,
2013-10-13 17:52:00,41.0,23.0,-100.00,SSE,165,10.0,19.0,48,0.00,,,0.00,,2013-10-14 01:52:00,
2013-10-13 18:02:00,41.0,23.0,-100.00,SSE,165,10.0,19.0,48,0.00,,,0.00,,2013-10-14 02:02:00,
2013-10-13 18:11:00,41.0,23.0,-100.00,SSE,165,10.0,19.0,48,0.00,,,0.00,,2013-10-14 02:11:00,
2013-10-13 18:21:00,40.0,23.0,-100.00,SSE,160,9.0,16.0,49,0.00,,,0.00,,2013-10-14 02:21:00,
2013-10-13 18:32:00,40.0,23.0,-100.00,SSE,160,9.0,16.0,49,0.00,,,0.00,,2013-10-14 02:32:00,
2013-10-13 18:42:00,40.0,23.0,-100.00,SSE,160,9.0,16.0,49,0.00,,,0.00,,2013-10-14 02:42:00,
2013-10-13 18:52:00,40.0,24.0,-100.00,SSE,165,7.0,13.0,53,0.00,,,0.00,,2013-10-14 02:52:00,
2013-10-13 19:02:00,40.0,24.0,-100.00,SSE,165,7.0,13.0,53,0.00,,,0.00,,2013-10-14 03:02:00,
2013-10-13 19:12:00,40.0,24.0,-100.00,SSE,165,7.0,13.0,53,0.00,,,0.00,,2013-10-14 03:12:00,
2013-10-13 19:22:00,39.0,25.0,-100.00,South,170,7.0,14.0,56,0.00,,,0.00,,2013-10-14 03:22:00,
2013-10-13 19:33:00,39.0,25.0,-100.00,South,170,7.0,14.0,56,0.00,,,0.00,,2013-10-14 03:33:00,
2013-10-13 19:44:00,39.0,25.0,-100.00,South,170,7.0,14.0,56,0.00,,,0.00,,2013-10-14 03:44:00,
2013-10-13 19:55:00,39.0,27.0,-100.00,South,175,9.0,17.0,61,0.00,,,0.00,,2013-10-14 03:55:00,
2013-10-13 20:04:00,39.0,27.0,-100.00,South,175,9.0,17.0,61,0.00,,,0.00,,2013-10-14 04:04:00,
2013-10-13 20:14:00,39.0,27.0,-100.00,South,175,9.0,17.0,61,0.00,,,0.00,,2013-10-14 04:14:00,
2013-10-13 20:24:00,37.0,30.0,-100.00,SSE,155,7.0,13.0,75,0.02,,,0.02,,2013-10-14 04:24:00,
2013-10-13 20:34:00,37.0,30.0,-100.00,SSE,155,7.0,13.0,75,0.02,,,0.02,,2013-10-14 04:34:00,
2013-10-13 20:43:00,37.0,30.0,-100.00,SSE,155,7.0,13.0,75,0.02,,,0.02,,2013-10-14 04:43:00,
2013-10-13 20:54:00,37.0,31.0,-100.00,SE,145,5.0,11.0,79,0.03,,,0.04,,2013-10-14 04:54:00,
2013-10-13 21:03:00,37.0,31.0,-100.00,SE,145,5.0,11.0,79,0.03,,,0.04,,2013-10-14 05:03:00,
2013-10-13 21:12:00,37.0,31.0,-100.00,SE,145,5.0,11.0,79,0.03,,,0.04,,2013-10-14 05:12:00,
2013-10-13 21:22:00,36.0,32.0,-100.00,SSW,205,5.0,13.0,85,0.02,,,0.05,,2013-10-14 05:22:00,
2013-10-13 21:34:00,36.0,32.0,-100.00,SSW,205,5.0,13.0,85,0.02,,,0.05,,2013-10-14 05:34:00,
2013-10-13 21:43:00,36.0,32.0,-100.00,SSW,205,5.0,13.0,85,0.02,,,0.05,,2013-10-14 05:43:00,
2013-10-13 21:52:00,35.0,32.0,-100.00,SW,225,4.0,9.0,87,0.02,,,0.06,,2013-10-14 05:52:00,
2013-10-13 22:02:00,35.0,32.0,-100.00,SW,225,4.0,9.0,87,0.02,,,0.06,,2013-10-14 06:02:00,
2013-10-13 22:12:00,35.0,32.0,-100.00,SW,225,4.0,9.0,87,0.02,,,0.06,,2013-10-14 06:12:00,
2013-10-13 22:22:00,35.0,33.0,-100.00,SW,230,4.0,15.0,89,0.01,,,0.07,,2013-10-14 06:22:00,
2013-10-13 22:32:00,35.0,33.0,-100.00,SW,230,4.0,15.0,89,0.01,,,0.07,,2013-10-14 06:32:00,
2013-10-13 22:42:00,35.0,33.0,-100.00,SW,230,4.0,15.0,89,0.01,,,0.07,,2013-10-14 06:42:00,
2013-10-13 22:52:00,34.0,32.0,-100.00,SW,225,7.0,17.0,91,0.03,,,0.09,,2013-10-14 06:52:00,
2013-10-13 23:01:00,34.0,32.0,-100.00,SW,225,7.0,17.0,91,0.03,,,0.09,,2013-10-14 07:01:00,
2013-10-13 23:11:00,34.0,32.0,-100.00,SW,225,7.0,17.0,91,0.03,,,0.09,,2013-10-14 07:11:00,
2013-10-13 23:22:00,34.0,32.0,-100.00,SSW,200,6.0,16.0,91,0.02,,,0.10,,2013-10-14 07:22:00,
2013-10-13 23:32:00,34.0,32.0,-100.00,SSW,200,6.0,16.0,91,0.02,,,0.10,,2013-10-14 07:32:00,
2013-10-13 23:42:00,34.0,32.0,-100.00,SSW,200,6.0,16.0,91,0.02,,,0.10,,2013-10-14 07:42:00,
2013-10-13 23:52:00,34.0,32.0,-100.00,SW,235,9.0,22.0,92,0.02,,,0.11,,2013-10-14 07:52:00,